Regional Weather Roundup
Issued by NWS

Home | Current Version | Previous Version | Text Only | Print | Product List | Glossary Off
Versions: 1 2 3 4 5 6 7 8 9 10 11 12 13 14 15 16 17 18 19 20 21 22 23 24 25 26 27 28 29 30 31 32 33 34 35 36 37 38 39 40 41 42 43 44 45 46 47 48 49 50

795
ASUS45 KBOU 232007
RWRCO

WEATHER ROUNDUP FOR COLORADO
NATIONAL WEATHER SERVICE DENVER/BOULDER CO
200 PM MDT SAT JUL 23 2016

NOTE: "FAIR" INDICATES FEW OR NO CLOUDS BELOW 12000 FEET WITH NO
SIGNIFICANT WEATHER AND/OR OBSTRUCTIONS TO VISIBILITY.

COZ001>005-013-030-031-232100-
...NORTHWEST COLORADO...

CITY           SKY/WX    TMP DP  RH WIND       PRES   REMARKS
CRAIG          FAIR      90  41  18 W8G17     30.19F
HAYDEN         FAIR      84  43  23 W16G22    30.22F
MEEKER         FAIR      85  48  27 S6        30.20F
MOUNT WERNER   NOT AVBL
STEAMBOAT SPGS FAIR      84  46  26 W10G17    30.25F
WALDEN         FAIR      81  36  19 W13G22    30.36F
$$

COZ006>008-011-232100-
...WEST CENTRAL VALLEYS...

CITY           SKY/WX    TMP DP  RH WIND       PRES   REMARKS
GRAND JUNCTION FAIR      91  48  22 VRB3      30.09F
MONTROSE       FAIR      90  44  20 N8        30.18F
EAGLE          MOSUNNY   90  41  18 W9G21     30.23F
RIFLE          FAIR      92  42  17 NW8       30.14F
DELTA          FAIR      95  44  17 SE7       30.13F
NUCLA          FAIR      90  41  18 N7        30.23F
$$

COZ017>023-064>068-232100-
...SOUTHWEST COLORADO...

CITY           SKY/WX    TMP DP  RH WIND       PRES   REMARKS
DURANGO        RAIN      82  47  29 VRB5      30.22F
CORTEZ         FAIR      93  44  18 NW10      30.18F
PAGOSA SPRINGS CLOUDY    81  32  17 NW13G24   30.32R
TELLURIDE      FAIR      77  39  25 W9G17     30.48F
WOLF CREEK PAS CLOUDY    59  36  41 SW10      30.71F
$$

COZ009-010-012-014-032>034-037-058>063-232100-
...CENTRAL COLORADO...

CITY           SKY/WX    TMP DP  RH WIND       PRES   REMARKS
ASPEN          FAIR      81  44  27 VRB7      30.33F
BUENA VISTA    LGT RAIN  80  33  18 N12G26    30.32F
COPPER MTN     PTSUNNY   64  32  29 NW13G21   30.71F
BERTHOUD PASS  FAIR      57  43  58 W5        30.74F
COTTONWOOD PAS PTSUNNY   73  34  23 CALM      30.51S
GUNNISON       FAIR      81  46  30 N5        30.36F
KREMMLING      PTSUNNY   86  32  14 SW12      30.30F
LEADVILLE      FAIR      73  27  18 N13G24    30.50F
MONARCH PASS   FAIR      68  36  30 MISG      30.80F
SALIDA         CLOUDY    81  39  22 W18G24    30.36F
SUNLIGHT       PTSUNNY   73  43  33 CALM      30.63F
WILKERSON PASS CLOUDY    68  34  28 E5        30.66F
$$

COZ069>075-232100-
...SAN LUIS VALLEY/SANGRE DE CRISTO MOUNTAINS...

CITY           SKY/WX    TMP DP  RH WIND       PRES   REMARKS
ALAMOSA        FAIR      82  40  22 VRB5      30.31F
LA VETA PASS   FAIR      79  37  22 S3        30.54S
SAGUACHE       FAIR      86  36  16 W15       30.31F
$$

COZ035-036-038>040-232100-
...NORTHERN COLORADO FRONT RANGE...

CITY           SKY/WX    TMP DP  RH WIND       PRES   REMARKS
DENVER INTL AP FAIR      96  38  13 E7        30.08F
DMNS CITY PARK   N/A     96  37  12 S9        30.07F
AURORA         MOSUNNY   94  38  13 CALM      30.12F
FRONT RANGE AP PTSUNNY   93  36  13 NE3       30.11F
ERIE MUNI ARPT FAIR      95  32  11 SE5       30.05F
BOULDER MUN AP FAIR      97  41  14 SE6       30.06F
CENTENNIAL     FAIR      93  33  12 S12       30.13F
BROOMFIELD     MOSUNNY   95  37  13 SE8       30.11F
LONGMONT       FAIR     100  40  12 E9        30.05F
$$

COZ041-046-047-076>085-087-088-232100-
...PIKES PEAK/PALMER DIVIDE AND SOUTHERN FOOTHILLS...

CITY           SKY/WX    TMP DP  RH WIND       PRES   REMARKS
COLO. SPRINGS  PTSUNNY   90  42  18 SE9       30.18F
A. F. ACADEMY  MOSUNNY   89  38  16 VRB7      30.19F
SCHRIEVER AFB  NOT AVBL
ELLICOTT       FAIR       1  32 100 VRB3      30.16F
FALCON         NOT AVBL
FORT CARSON    FAIR      89  38  17 SE5       30.14F
LIMON          FAIR      97  35  11 MISG      30.10F
MONUMENT HILL  FAIR      84  41  21 NE5       30.27F
TRINIDAD       NOT AVBL
$$

COZ042>045-048>051-090-091-232100-
...NORTHEAST COLORADO...

CITY           SKY/WX    TMP DP  RH WIND       PRES   REMARKS
GREELEY ARPT   FAIR      99  41  13 SW5       30.03F
AKRON          FAIR      92  51  24 MISG      30.05F
BURLINGTON     FAIR      98  49  18 N15G21    30.00S
WRAY           FAIR     100  52  19 N8        29.96S
STERLING       FAIR      97  55  24 S6        29.97S
HOLYOKE        FAIR      97  59  28 W5        29.96S
FORT MORGAN    FAIR      97  50  20 SE10      30.02F
$$

COZ086-089-092>099-232100-
...SOUTHEAST COLORADO...

CITY           SKY/WX    TMP DP  RH WIND       PRES   REMARKS
PUEBLO         FAIR     100  45  15 E9G20     30.02F
LA JUNTA       FAIR     101  51  18 NW6       29.98F
LAMAR          FAIR     100  56  23 VRB3      29.92F
SPRINGFIELD      N/A    100  47  16 W8        29.98F
$$




USA.gov is the U.S. government's official web portal to all federal, state and local government web resources and services.